Theta_e
301 301 301 301 301 301 301 301 301 301 302 302 304 306 307 310 310 310 310 310 310 310 310 310 310 309 309 310 309 311 303 303 306 307 307 307 306 309 308 309 310 311 310 310 310
301 301 301 301 301 301 301 301 301 301 301 302 305 307 306 308 310 310 310 310 310 310 310 309 309 308 308 308 308 305 302 307 307 306 306 307 308 308 308 309 310 310 310 309 308
301 301 301 301 300 300 301 301 301 301 301 302 306 307 307 309 310 310 310 310 310 310 310 310 310 309 307 308 308 307 306 307 309 310 308 308 308 309 309 309 310 309 309 308 308
300 300 300 300 300 300 300 301 301 301 301 302 305 307 309 310 314 310 310 310 309 310 310 308 310 307 306 306 307 308 309 309 309 309 309 308 309 309 310 310 310 309 309 308 307
300 300 300 300 300 300 300 301 301 301 301 302 305 306 309 309 309 309 310 309 309 309 310 309 308 308 306 307 307 307 308 309 309 309 309 309 310 309 310 310 309 309 309 307 306
300 300 300 300 300 300 300 301 301 301 301 304 305 306 310 310 308 309 309 309 309 309 308 309 308 309 308 307 306 308 308 308 310 310 310 310 310 310 310 310 308 309 309 308 306
300 300 300 300 300 300 300 301 302 301 302 306 306 309 309 308 308 308 309 309 309 309 308 309 310 310 309 307 308 308 308 307 309 310 310 310 311 310 310 309 307 308 308 308 307
300 300 300 300 300 300 301 303 302 301 302 305 306 306 306 306 307 308 308 309 309 309 308 309 310 310 308 308 308 309 307 310 310 309 310 310 309 309 310 309 307 307 307 308 307
300 300 300 300 299 300 302 302 302 302 303 304 305 308 306 306 306 308 308 309 309 310 311 312 312 311 310 310 307 304 308 306 311 309 309 309 309 309 310 309 306 305 307 308 308
300 300 300 299 299 300 301 301 302 303 304 305 305 306 305 307 306 308 308 308 308 310 312 313 311 304 303 305 300 305 306 307 309 310 308 310 309 306 309 308 305 305 306 309 308
300 300 300 299 299 300 301 302 303 303 303 305 305 307 306 306 307 308 308 311 311 311 310 310 305 303 307 307 305 302 300 303 306 308 309 309 307 307 310 307 304 304 304 307 308
300 300 299 299 299 300 300 302 305 305 303 303 304 305 305 307 308 307 310 311 310 307 309 304 306 307 307 307 306 303 305 301 304 307 308 302 307 308 310 308 304 303 303 306 310
302 300 299 299 299 300 300 301 302 301 304 303 304 305 305 307 307 307 310 310 309 309 309 307 308 309 310 310 308 310 310 307 306 307 309 308 306 307 310 308 304 303 302 303 306
305 300 299 299 299 300 300 301 301 302 301 303 302 304 305 307 306 306 309 309 308 308 307 308 308 310 310 310 307 309 308 307 308 308 306 306 303 304 311 309 304 302 302 302 303
306 301 300 299 300 300 302 302 300 302 311 303 302 304 305 306 306 305 307 309 308 307 307 308 308 309 310 308 306 308 307 307 309 310 309 305 307 306 311 311 305 302 302 302 303
308 303 301 298 302 301 301 300 301 306 310 301 302 304 305 305 306 305 306 308 307 305 305 306 306 306 306 306 306 306 308 309 308 306 303 305 306 304 309 311 307 303 301 301 301
309 304 302 298 301 301 298 300 306 306 300 299 301 304 304 304 306 306 306 304 302 299 300 305 307 305 305 307 306 306 306 308 304 303 305 304 305 303 309 310 305 302 302 301 300
308 305 303 299 300 299 298 304 303 299 297 300 302 303 304 303 305 306 304 301 305 303 298 303 303 306 305 306 306 307 305 303 304 306 302 302 305 303 309 309 305 303 302 301 300
307 307 304 300 299 298 303 303 308 299 301 301 302 301 301 303 303 305 303 303 302 304 304 303 304 304 305 305 306 307 303 304 306 297 304 305 302 303 307 307 304 303 302 301 300
307 307 304 300 300 298 303 305 296 301 300 301 302 299 296 298 302 303 303 304 304 304 304 304 304 304 305 305 306 307 305 307 304 300 302 304 303 302 304 305 305 304 303 302 300
307 306 304 299 298 302 301 297 295 301 301 301 300 297 300 299 298 301 302 303 303 304 304 303 302 302 304 305 305 306 306 304 303 304 306 305 304 299 305 304 303 306 306 303 301
306 301 301 297 299 300 292 294 298 297 300 299 299 301 299 300 300 300 302 302 303 304 304 305 303 301 306 304 304 305 306 304 304 306 302 305 303 302 305 304 304 307 308 305 303
305 297 297 298 295 291 292 291 296 297 298 298 299 301 300 301 301 302 300 300 302 303 303 302 299 297 301 303 302 303 304 305 302 300 304 303 304 302 303 305 307 307 308 306 303
302 297 297 297 297 295 292 293 294 296 298 299 299 300 299 300 295 299 300 299 301 303 304 303 301 303 307 306 303 304 305 304 303 300 302 303 303 302 302 302 304 308 309 307 305
303 298 296 294 296 295 297 295 295 295 297 299 299 299 299 297 299 296 298 299 300 303 302 298 296 297 302 301 301 302 304 304 303 302 305 305 303 302 302 300 303 305 308 306 305
302 298 295 295 298 299 298 294 297 296 297 298 298 298 298 299 302 299 299 298 300 300 300 298 293 290 293 296 297 301 300 301 302 303 302 302 303 302 303 303 303 304 304 306 306
306 304 302 297 297 299 298 296 297 297 297 299 298 298 299 299 300 299 299 299 298 299 295 294 290 293 299 290 294 303 298 299 299 299 302 304 303 303 303 304 304 304 304 304 306
Wind_Speed
5 5 5 5 6 6 7 8 8 8 8 6 5 2 1 5 12 7 10 12 12 6 5 7 6 6 6 7 7 2 5 2 1 1 0 5 4 7 4 7 7 19 21 30 37
7 6 6 5 5 6 6 6 7 7 7 6 5 3 2 1 5 14 13 10 8 6 5 4 10 10 6 6 6 7 4 2 0 2 1 3 2 6 5 9 8 25 28 33 34
8 7 7 5 4 4 5 5 6 6 6 5 4 3 2 1 3 9 12 10 8 5 5 5 7 7 8 8 8 5 4 5 1 2 1 2 4 3 5 4 15 23 29 33 34
9 8 7 6 5 4 4 4 5 5 5 4 2 3 3 2 1 6 9 10 11 5 3 7 3 5 5 5 4 7 7 5 3 2 1 0 3 2 7 7 17 22 22 32 28
10 9 7 6 4 4 4 3 4 4 4 3 1 0 1 4 4 4 7 10 9 6 5 8 10 6 4 4 5 6 3 5 1 1 1 1 2 2 6 14 20 22 24 26 25
12 10 8 6 5 4 3 3 3 3 4 3 1 1 1 3 2 3 6 8 10 10 7 5 10 13 10 4 4 6 7 3 4 3 2 1 1 1 5 17 22 25 25 25 24
13 11 9 7 6 4 3 2 2 2 1 2 3 3 4 4 3 2 4 7 11 11 11 11 6 2 5 4 7 8 4 1 3 2 1 2 3 1 9 17 22 25 24 27 25
14 13 10 9 7 5 3 2 1 0 1 2 1 2 3 4 3 3 2 5 7 11 12 12 13 12 5 10 4 3 4 2 1 6 1 3 5 1 11 18 23 26 25 29 29
16 14 12 10 7 5 4 2 1 1 2 3 2 2 3 2 2 4 4 5 6 8 10 8 7 6 4 4 4 7 1 3 4 3 4 3 4 2 11 16 21 25 25 28 32
17 16 13 11 8 6 5 4 3 3 3 3 3 2 3 2 3 4 5 5 4 6 5 4 5 4 4 4 3 3 2 3 3 3 5 4 5 7 9 13 18 22 25 33 33
18 16 14 11 9 7 6 6 4 2 3 2 3 3 4 5 4 4 5 6 5 5 3 6 7 2 0 3 4 6 4 1 4 3 4 2 5 6 8 11 18 22 24 29 32
18 18 15 13 11 9 9 5 4 4 4 3 4 3 5 5 2 3 4 2 3 3 3 6 3 2 4 3 3 4 2 3 5 4 2 2 5 3 4 5 12 17 22 29 32
19 19 17 14 12 11 11 8 5 4 3 2 3 4 5 4 2 2 3 4 5 4 4 5 3 3 1 1 3 1 1 1 4 5 2 2 5 3 0 6 11 17 20 24 27
20 19 18 15 11 12 12 10 6 6 4 2 3 3 4 5 2 3 4 3 3 5 4 5 3 2 1 0 2 3 2 1 4 3 0 3 3 4 3 3 6 14 18 21 23
20 19 19 19 8 16 9 11 11 5 2 1 3 4 5 3 6 3 4 3 4 4 4 3 5 2 1 1 1 2 3 3 3 2 2 4 3 6 0 1 3 8 13 15 18
22 21 21 21 13 14 13 15 10 6 6 2 3 4 4 2 2 4 3 5 6 5 5 3 1 1 2 1 1 1 3 1 3 3 3 3 3 4 2 1 1 1 7 11 14
23 24 23 21 15 16 19 16 5 4 4 3 4 4 3 4 2 3 4 3 5 5 2 4 1 2 1 2 3 5 4 3 4 4 4 3 2 7 3 3 5 6 5 7 10
24 25 25 22 17 20 23 4 3 2 6 2 3 3 5 5 1 3 4 3 2 4 4 5 4 3 1 0 3 2 4 4 4 2 4 4 3 3 2 5 7 6 6 6 7
29 27 23 24 21 25 14 3 8 8 7 10 4 4 2 2 5 3 6 6 7 7 5 5 1 1 2 1 1 1 1 2 5 2 3 3 6 0 3 4 7 8 6 5 6
35 29 27 25 23 25 3 6 5 4 6 4 7 4 7 5 4 5 7 4 6 3 5 5 4 0 1 0 1 1 2 2 3 2 2 4 4 4 4 8 8 9 12 9 7
38 15 19 25 25 14 5 7 5 7 5 6 6 5 5 7 6 6 8 1 4 4 4 5 3 3 1 3 5 1 2 2 2 2 3 1 5 5 3 5 9 16 17 14 11
35 4 27 29 9 4 4 6 6 5 5 2 4 4 7 6 5 4 8 2 6 10 8 4 4 3 2 0 1 2 3 4 4 4 1 1 6 2 3 4 9 12 16 14 11
32 8 29 34 6 3 0 1 4 4 5 6 4 3 2 6 4 4 4 1 5 4 6 6 1 3 6 4 3 4 4 3 4 3 4 4 5 0 4 5 7 12 14 15 15
18 4 7 13 5 8 6 4 4 7 4 5 5 6 4 2 3 5 3 2 1 4 5 4 4 5 6 5 4 3 4 4 2 3 5 6 6 5 5 6 7 11 15 16 18
13 7 14 8 10 5 11 10 8 6 5 8 2 5 7 4 2 3 2 3 2 5 3 4 5 2 1 2 3 3 4 6 8 4 5 2 7 6 7 7 12 11 13 20 21
19 9 10 8 27 8 12 10 14 7 9 7 5 10 7 7 8 10 9 5 6 4 5 1 3 3 3 5 3 4 7 8 6 4 8 8 15 6 10 10 14 13 18 24 26
23 22 29 19 17 12 10 10 14 12 8 8 12 7 7 5 5 13 9 13 9 8 4 5 6 4 4 3 3 6 9 13 7 5 7 6 9 3 3 5 4 5 10 22 28
Wind_Direction
256 272 290 312 327 340 347 356 4 8 14 23 35 39 195 46 45 47 43 27 27 39 40 56 53 82 81 68 54 71 63 87 55 62 212 355 16 1 357 9 5 343 330 315 311
254 263 276 293 315 329 342 355 3 5 16 22 31 48 165 44 51 43 36 26 14 26 63 67 55 59 66 33 28 61 82 138 274 131 180 319 32 342 0 358 334 332 340 337 331
255 262 273 285 298 317 336 346 1 7 10 24 44 64 111 131 42 19 29 21 11 19 47 80 66 57 58 38 17 45 111 158 92 76 94 350 13 56 3 335 344 325 328 335 327
243 257 266 278 291 305 324 344 353 5 17 19 58 83 63 39 116 24 30 25 18 35 67 70 93 65 68 45 34 95 67 115 120 26 167 3 339 133 22 333 335 335 323 336 331
246 248 254 260 276 291 313 334 349 359 20 24 32 245 16 60 75 50 36 32 28 41 89 95 73 85 95 100 63 78 147 96 117 238 120 28 8 176 4 344 347 349 342 335 337
242 244 246 250 252 264 284 318 348 355 18 20 89 85 107 86 60 45 44 36 44 56 71 101 88 104 87 75 76 128 127 120 37 158 178 55 218 353 311 348 355 359 352 349 343
236 237 239 242 243 253 264 290 331 1 31 75 105 74 78 105 75 40 55 45 55 70 90 89 102 100 113 99 115 127 92 22 7 330 214 7 276 294 346 354 360 360 358 1 2
228 232 231 232 231 232 241 262 278 331 190 181 120 60 93 96 77 55 87 77 84 80 82 98 95 81 67 119 71 61 51 50 256 10 348 74 280 5 359 4 1 1 1 8 8
225 222 223 225 222 218 225 226 202 165 175 173 164 129 106 117 77 87 107 119 102 95 90 88 76 73 68 73 30 12 118 352 330 69 353 58 301 316 357 9 5 4 4 14 26
222 220 216 215 216 212 211 191 167 152 140 143 165 119 154 120 88 99 104 109 120 108 82 49 56 62 30 60 209 215 79 313 286 324 7 352 290 326 6 18 9 8 11 21 26
223 217 212 209 206 205 192 155 160 154 170 148 129 119 143 125 107 126 117 99 88 70 73 33 66 88 165 40 85 109 106 225 264 288 359 337 299 331 348 28 10 13 11 21 26
222 214 205 203 200 198 195 198 199 153 112 114 142 147 150 150 113 114 129 90 70 98 69 29 89 197 135 152 111 102 111 304 289 277 120 356 311 326 341 43 20 17 20 25 25
222 213 201 196 200 196 202 204 184 166 90 159 165 154 157 160 126 98 127 107 81 56 35 111 160 151 11 333 334 88 27 309 241 318 246 338 327 357 153 59 23 30 35 35 32
227 211 200 187 199 196 204 201 185 163 70 204 197 189 164 154 63 106 109 113 56 134 108 100 169 112 220 255 50 342 37 347 296 11 176 65 270 312 184 25 15 24 37 34 35
223 208 199 186 189 185 191 178 156 134 356 127 157 158 152 154 140 66 107 77 100 108 105 222 166 164 224 184 138 224 20 337 303 319 21 343 74 272 277 241 349 18 39 46 44
222 207 197 191 186 180 168 154 139 51 257 162 142 170 126 121 116 120 110 86 110 72 35 116 70 98 197 288 239 5 52 39 16 343 26 299 104 289 293 164 180 20 56 56 60
215 205 196 189 187 172 157 149 58 146 356 249 198 169 163 149 130 147 140 117 142 90 330 356 355 318 63 105 22 52 51 359 346 13 210 349 54 242 234 177 171 167 119 80 70
205 198 194 189 185 170 157 68 132 225 209 180 144 114 169 156 148 144 113 141 224 104 111 146 312 171 8 222 190 178 139 148 197 330 288 325 257 262 215 147 144 148 127 110 89
196 193 196 187 183 172 177 109 209 200 164 144 76 101 261 213 136 141 189 190 188 179 143 136 321 322 69 42 95 52 53 162 111 74 41 281 299 121 156 196 177 179 185 154 124
185 186 196 186 182 176 127 224 215 192 128 119 155 152 182 216 136 165 182 197 182 185 134 197 102 283 56 255 72 125 181 53 359 73 314 300 282 245 243 235 215 201 206 189 175
178 165 192 184 177 183 179 219 213 204 174 143 172 140 189 186 163 179 196 285 157 160 129 147 111 258 34 208 178 170 170 97 116 143 156 298 273 210 261 235 208 209 207 199 189
165 153 168 173 162 180 180 189 164 163 184 129 123 116 164 168 145 174 181 233 173 160 156 175 128 140 164 270 335 287 231 166 127 229 256 114 276 226 201 288 229 217 205 203 201
158 124 169 176 162 206 344 18 184 139 189 164 167 143 162 162 120 153 158 240 164 142 160 172 298 63 354 2 4 234 224 203 113 90 205 143 259 301 292 305 227 221 205 208 204
143 129 164 209 215 149 140 203 199 210 183 167 138 116 112 118 14 161 135 175 162 129 137 141 119 183 175 167 147 201 193 197 145 117 175 227 278 273 276 254 251 237 230 215 213
156 186 173 186 217 194 179 161 153 163 219 188 35 196 158 123 73 158 128 126 45 156 123 124 160 150 272 161 141 168 192 189 210 222 190 255 219 254 251 235 240 260 239 221 218
159 147 149 167 179 177 189 199 173 174 152 216 193 182 172 159 185 187 146 189 186 168 156 50 171 101 346 328 98 240 211 194 239 252 271 278 286 230 292 254 265 257 238 224 224
183 170 161 166 177 184 199 178 194 158 220 200 172 132 172 209 124 115 128 135 138 137 140 135 138 108 251 340 348 311 217 185 179 209 185 206 227 226 235 251 241 295 278 241 236